Zurück zum Katalog

SL-8 R/B

AktivLEO
NORAD 19770·ROCKET BODY·🇷🇺 Russia

Gestartet Jan 26, 1989 von Plesetsk Cosmodrome

Loading…

Nächste Überflüge (nächste 24 Stunden)

TLE

AktuellSource: Space-Track

Epoche: Sep 14, 2026, 02:10 UTC

1 19770U 89005B   26257.09029429  .00000095  00000-0  38164-4 0  9993
2 19770  74.0445 302.8712 0005924 267.8422 117.5046 14.40383164971953

Verfolge SL-8 R/B in Echtzeit mit AllMySat

Download on the App Store